Regional Weather Roundup
Issued by NWS

Home | Current Version | Previous Version | Text Only | Print | Product List | Glossary On
Versions: 1 2 3 4 5 6 7 8 9 10 11 12 13 14 15 16 17 18 19 20 21 22 23 24 25 26 27 28 29 30 31 32 33 34 35 36 37 38 39 40 41 42 43 44 45 46 47 48 49 50
000
ASUS43 KDTX 200210
RWRMI
MICHIGAN HOURLY REGIONAL WEATHER ROUNDUP
NATIONAL WEATHER SERVICE DETROIT/PONTIAC MI
1000 PM EDT TUE SEP 19 2017

NOTE: "FAIR" INDICATES FEW OR NO CLOUDS BELOW 12,000 FEET WITH NO
SIGNIFICANT WEATHER AND/OR OBSTRUCTION TO VISIBILITY.

MIZ047>049-052>055-059>063-066>070-074>076-081>083-200300-
SOUTHEAST LOWER MICHIGAN

CITY           SKY/WX    TMP DP  RH WIND       PRES   REMARKS
ADRIAN         CLOUDY    68  66  93 E7        29.96S FOG
ALMA           CLOUDY    65  63  92 NE8       29.98S FOG
ANN ARBOR      CLOUDY    68  68 100 E3        29.96S FOG
BAD AXE        CLOUDY    67  65  94 CALM      30.00S FOG
CARO           CLOUDY    67  64  91 E5        29.98S FOG
DETROIT CITY   CLOUDY    69  68  96 CALM      29.97S FOG
DETROIT        CLOUDY    69  68  96 E3        29.97R FOG
FLINT          CLOUDY    68  65  90 E7        29.97S
GROSSE ILE     CLOUDY    67  66  97 CALM      29.96S FOG
HILLSDALE      CLOUDY    64  63  94 CALM      29.96S
HOWELL         CLOUDY    67  65  94 CALM      29.97S FOG

CITY           SKY/WX    TMP DP  RH WIND       PRES   REMARKS
JACKSON        CLOUDY    69  66  90 E7        29.96S
LAMBERTVILLE   MOCLDY    69  67  91 CALM      29.95S FOG
LANSING        CLOUDY    66  64  93 NE7       29.97S FOG
LAPEER         CLOUDY    67  66  96 E3        29.99S FOG
MASON          CLOUDY    68  65  91 CALM      29.97R FOG
MONROE         CLOUDY    69  67  92 E3        29.95S FOG
MT. CLEMENS    CLOUDY    69  69 100 NE3       29.96S FOG
PONTIAC        CLOUDY    68  67  96 E5        29.97S FOG
PORT HOPE        N/A     67  66  97 SE7       29.99S
PORT HURON     CLOUDY    68  66  94 CALM      29.99S FOG
TRI CITIES     CLOUDY    67  66  97 NE8       29.99S
MIDLAND        CLOUDY    65  64  95 NE6       29.98S
TROY           CLOUDY    69  67  94 NE6       29.99S FOG
SAGINAW HB     CLOUDY    64  63  94 NE5       29.98S FOG
$$
MIZ043>046-050>051-056>058-064>065-071>073-077>080-200300-
SOUTHWEST LOWER MICHIGAN

CITY           SKY/WX    TMP DP  RH WIND       PRES   REMARKS
BATTLE CREEK   CLOUDY    67  66  97 NE7       29.95S
BENTON HARBOR  CLOUDY    68  63  84 CALM      29.93R
BIG RAPIDS     CLEAR     63  58  85 CALM      29.97S
COLDWATER      CLOUDY    68  68 100 E5        29.95R
FREMONT        FAIR      65  62  90 E3        29.96R
HOLLAND        CLEAR     67  60  78 E3        29.95S
GRAND RAPIDS   CLOUDY    68  63  84 NE8       29.95S
IONIA          CLOUDY    66  64  91 NE5       29.96R
KALAMAZOO      CLOUDY    69  63  81 NE3       29.95R
LUDINGTON      CLEAR     57  55  91 CALM      29.95R
MARSHALL       CLOUDY    66  65  97 NE3       29.95S FOG
MOUNT PLEASANT CLOUDY    65  64  96 CALM      29.98S
MUSKEGON       CLEAR     65  60  84 E5        29.95R
SOUTH HAVEN    MOCLDY    68  64  88 CALM      29.93F
$$
MIZ016>042-200300-
NORTHERN LOWER MICHIGAN

CITY           SKY/WX    TMP DP  RH WIND       PRES   REMARKS
ALPENA         CLOUDY    65  63  93 NE3       30.03S
BEAVER ISLAND  CLEAR     62  58  87 E10       30.00S
BELLAIRE       CLEAR     60  56  87 CALM      29.98S
CADILLAC       MOCLDY    66  59  77 SE8       29.98S
CHARLEVOIX     CLEAR     64  58  80 E7        30.02R
FRANKFORT      CLEAR     58  57  94 CALM      29.95S
GAYLORD        CLEAR     59  54  83 VRB5      30.01S
GRAYLING       PTCLDY    60  56  87 E8        30.01F
HARBOR SPRINGS CLEAR     61  57  87 E8        30.00S
HOUGHTON LAKE  CLOUDY    63  59  87 E6        30.01S
MANISTEE       CLEAR     56  55  97 E3        29.95R
OSCODA         CLOUDY    66  65  96 E7        30.00S
PELLSTON       CLEAR     59  56  89 CALM      30.02R
ROGERS CITY    CLOUDY    61  59  93 SE3       30.04F
TRAVERSE CITY  PTCLDY    62  56  80 CALM      29.96R
$$
MIZ007>008-015-200300-
EASTERN UPPER MICHIGAN

CITY           SKY/WX    TMP DP  RH WIND       PRES   REMARKS
KINROSS        CLEAR     57  53  86 CALM      30.03S
MACKINAC ISLAN PTCLDY    62  60  93 E8        30.02S
NEWBERRY       PTCLDY    56  54  92 SE6       30.00F
S. S. MARIE    CLEAR     60  56  86 E3        30.03R
MUNISING         N/A     57  55  93 S5        29.98S
$$
MIZ004>006-011>014-085-200300-
CENTRAL UPPER MICHIGAN

CITY           SKY/WX    TMP DP  RH WIND       PRES   REMARKS
MANISTIQUE     CLEAR     58  52  80 E7        29.98F
ESCANABA       CLEAR     61  57  87 NE5       29.97R
MENOMINEE      CLEAR     62  58  86 E3        29.97R
SAWYER-GWINN   CLEAR     59  52  77 SE3       29.99S
$$
MIZ001>003-009>011-084-200300-
WESTERN UPPER MICHIGAN

CITY           SKY/WX    TMP DP  RH WIND       PRES   REMARKS
IRON MOUNTAIN  CLEAR     60  51  72 E6        29.96R
HOUGHTON       CLEAR     58  54  86 E9        29.93S
COPPER HARBOR    N/A     64  53  67 S8G17     29.94S
IRONWOOD       CLOUDY    65  58  78 SE9       29.87F
$$

ABBREVIATIONS USED IN REMARKS
   TC - TEMPERATURE IN CELSIUS
  WCI - WIND CHILL INDEX
   HX - HEAT INDEX
  VSB - VISIBILITY




USA.gov is the U.S. government's official web portal to all federal, state and local government web resources and services.